This is the latest recevied weather packets stored in our database for station/object KF0WJA. If no packets are shown the sender has not sent any weather packets the latest 10 day(s).
| Time | Temp. | Humidity | Pressure | Rain* | Wind** | Luminosity | Snow |
|---|---|---|---|---|---|---|---|
| 1788616710 | 30° C | 61% | 1016.8 hPa | 0 mm | - | 171 W/m² | - |
| 1788616406 | 30° C | 61% | 1016.8 hPa | 0 mm | - | 150 W/m² | - |
| 1788616102 | 29.44° C | 63% | 1017 hPa | 0 mm | - | 141 W/m² | - |
| 1788615801 | 28.89° C | 64% | 1016.8 hPa | 0 mm | - | 68 W/m² | - |
| 1788615501 | 28.33° C | 66% | 1017 hPa | 0 mm | - | 51 W/m² | - |
| 1788615196 | 28.33° C | 66% | 1017 hPa | 0 mm | - | 47 W/m² | - |
| 1788614895 | 27.78° C | 68% | 1016.9 hPa | 0 mm | - | 42 W/m² | - |
| 1788614591 | 27.22° C | 69% | 1016.7 hPa | 0 mm | - | 40 W/m² | - |
| 1788614291 | 26.67° C | 71% | 1016.7 hPa | 0 mm | - | 39 W/m² | - |
| 1788613986 | 26.67° C | 71% | 1016.7 hPa | 0 mm | - | 35 W/m² | - |
| 1788613681 | 26.67° C | 71% | 1016.6 hPa | 0 mm | - | 35 W/m² | - |
| 1788613380 | 26.67° C | 71% | 1016.6 hPa | 0 mm | - | 41 W/m² | - |
| 1788613076 | 26.11° C | 73% | 1016.9 hPa | 0 mm | - | 39 W/m² | - |
| 1788612770 | 26.11° C | 73% | 1016.6 hPa | 0 mm | - | 38 W/m² | - |
| 1788612467 | 25.56° C | 74% | 1016.8 hPa | 0 mm | - | 35 W/m² | - |
| 1788612163 | 25.56° C | 74% | 1016.5 hPa | 0 mm | - | 32 W/m² | - |
| 1788611858 | 25.56° C | 75% | 1016.5 hPa | 0 mm | - | 30 W/m² | - |
| 1788611555 | 25.56° C | 75% | 1016.3 hPa | 0 mm | - | 23 W/m² | - |
| 1788611255 | 25° C | 75% | 1016.3 hPa | 0 mm | - | 20 W/m² | - |
| 1788610948 | 25° C | 76% | 1016.2 hPa | 0 mm | - | 16 W/m² | - |
| 1788610644 | 24.44° C | 77% | 1016.5 hPa | 0 mm | - | 12 W/m² | - |
| 1788610340 | 24.44° C | 77% | 1016 hPa | 0 mm | - | 8 W/m² | - |
| 1788610039 | 24.44° C | 77% | 1016 hPa | 0 mm | - | 5 W/m² | - |
| 1788609734 | 24.44° C | 77% | 1016.1 hPa | 0 mm | - | 2 W/m² | - |
| 1788609434 | 24.44° C | 78% | 1016.1 hPa | 0 mm | - | 1 W/m² | - |
* Rain latest hour (hover to see other rain measurements)
** Current wind speed in m/s (hover to see current wind gust speed)